Weather History for The Dalles, OR

Change the Weather History Date:

Monday, April 16, 2012

  Actual Average Record
Temperature  
Mean Temperature 54 °F -  
Max Temperature 62 °F 64 °F 85 °F (1990)
Min Temperature 48 °F 42 °F 27 °F (2006)
Degree Days  
Heating Degree Days 10    
Growing Degree Days 4 (Base 50)    
Moisture  
Dew Point 43 °F    
Average Humidity 70    
Maximum Humidity 86    
Minimum Humidity 46    
Precipitation  
Precipitation 0.04 in - - ()
Sea Level Pressure  
Sea Level Pressure 30.06 in    
Wind  
Wind Speed 5 mph (NW)    
Max Wind Speed 22 mph    
Max Gust Speed 29 mph    
Visibility 10 miles    
Events Rain    
Averages and records for this station are not official NWS values.
T = Trace of Precipitation, MM = Missing Value Source: NWS Daily Summary

Daily Weather History Graph

Daily Weather History Graph

Search for Another Location

Airport:

Trip Planner

Search our weather history database for the weather conditions in past years. The results will help you decide how hot, cold, wet, or windy it might be!

Date:

Astronomy

Apr. 16, 2012 Rise Set
Actual Time 6:16 AM PDT 7:53 PM PDT
Civil Twilight 5:45 AM PDT 8:24 PM PDT
Nautical Twilight 5:07 AM PDT 9:02 PM PDT
Astronomical Twilight 4:26 AM PDT 9:43 PM PDT
Moon 3:59 AM PDT (4/16) 3:42 PM PDT (4/16)
Length of Visible Light 14h 39m
Length of Day
13h 36m
Waning Crescent, 18% of the Moon is Illuminated
Apr 16
Waning Crescent
Apr 21
New
Apr 29
First Quarter
May 5
Full
May 12
Last Quarter

Hourly Weather History & Observations

Time (PDT) Temp. Dew Point Humidity Pressure Visibility Wind Dir Wind Speed Gust Speed Precip Events Conditions
12:53 AM 55.0 °F 37.0 °F 51% 30.04 in 10.0 mi Calm Calm - 0.00 in Rain Light Rain
1:53 AM 51.1 °F 45.0 °F 80% 30.04 in 10.0 mi ENE 3.5 mph - 0.02 in Rain Light Rain
3:53 AM 50.0 °F 45.0 °F 83% 30.01 in 10.0 mi Calm Calm - 0.01 in   Overcast
4:53 AM 50.0 °F 45.0 °F 83% 30.00 in 10.0 mi Calm Calm - N/A   Overcast
5:53 AM 48.9 °F 45.0 °F 86% 29.99 in 10.0 mi Calm Calm - N/A   Overcast
6:53 AM 48.9 °F 45.0 °F 86% 30.00 in 10.0 mi NW 3.5 mph - N/A   Overcast
7:53 AM 50.0 °F 46.0 °F 86% 30.00 in 10.0 mi WNW 3.5 mph - 0.00 in Rain Light Rain
8:53 AM 51.1 °F 46.9 °F 86% 30.01 in 10.0 mi Calm Calm - 0.01 in Rain Light Rain
9:53 AM 51.1 °F 46.0 °F 83% 30.02 in 10.0 mi Calm Calm - 0.00 in   Overcast
10:53 AM 52.0 °F 46.9 °F 83% 30.04 in 10.0 mi Calm Calm - N/A   Overcast
11:09 AM 51.8 °F 46.4 °F 82% 30.03 in 10.0 mi SSE 4.6 mph - N/A   Mostly Cloudy
11:53 AM 54.0 °F 46.9 °F 77% 30.04 in 10.0 mi Calm Calm - N/A   Scattered Clouds
12:53 PM 54.0 °F 46.9 °F 77% 30.04 in 10.0 mi WNW 3.5 mph - N/A   Mostly Cloudy
1:53 PM 57.9 °F 46.9 °F 67% 30.04 in 10.0 mi NNW 5.8 mph - N/A   Mostly Cloudy
2:53 PM 61.0 °F 44.1 °F 54% 30.06 in 10.0 mi NW 9.2 mph - N/A   Overcast
3:53 PM 61.0 °F 42.1 °F 50% 30.06 in 10.0 mi WNW 17.3 mph 27.6 mph N/A   Partly Cloudy
4:53 PM 60.1 °F 39.0 °F 46% 30.06 in 10.0 mi NW 19.6 mph 27.6 mph N/A   Partly Cloudy
5:53 PM 60.1 °F 39.9 °F 47% 30.06 in 10.0 mi NW 19.6 mph 28.8 mph N/A   Clear
6:53 PM 55.9 °F 39.9 °F 55% 30.09 in 10.0 mi NW 18.4 mph 27.6 mph N/A   Clear
7:53 PM 53.1 °F 39.9 °F 61% 30.11 in 10.0 mi WNW 9.2 mph - N/A   Clear
8:53 PM 52.0 °F 39.0 °F 61% 30.14 in 10.0 mi WNW 13.8 mph - N/A   Partly Cloudy
9:53 PM 51.1 °F 39.0 °F 63% 30.17 in 10.0 mi NW 21.9 mph 26.5 mph N/A   Partly Cloudy
10:53 PM 50.0 °F 37.0 °F 61% 30.18 in 10.0 mi West 16.1 mph - N/A   Partly Cloudy
11:53 PM 48.0 °F 37.0 °F 66% 30.19 in 10.0 mi Variable 3.5 mph - N/A   Clear